Satellite: IDEFIX/ARIANE 
Catalog number: 27422
Epoch time:      102361.20901212
Element set:     194 
Inclination:       98.7033 deg
RA of node:        75.6371 deg
Eccentricity:    0.0011993
Arg of perigee:   308.6410 deg
Mean anomaly:      51.3696 deg
Mean motion:   14.27938636 rev/day
Decay rate:    6.4300E-006 rev/day^2
Epoch rev:            3384
Checksum:              294

Satellite: NOAA 17
Catalog number: 27453
Epoch time:      102360.92665031
Element set:     246 
Inclination:       98.7663 deg
RA of node:        67.3981 deg
Eccentricity:    0.0011955
Arg of perigee:   148.5773 deg
Mean anomaly:     211.6121 deg
Mean motion:   14.23258413 rev/day
Decay rate:    6.2200E-006 rev/day^2
Epoch rev:            2633
Checksum:              298

Satellite: HOT BIRD 6
Catalog number: 27499
Epoch time:      102351.86791068
Element set:     63 
Inclination:        0.0109 deg
RA of node:       318.8794 deg
Eccentricity:    0.0005346
Arg of perigee:   321.1542 deg
Mean anomaly:     131.7250 deg
Mean motion:    1.00272691 rev/day
Decay rate:    1.1199E-006 rev/day^2
Epoch rev:             120
Checksum:              381

Satellite: RUBIN-2
Catalog number: 27605
Epoch time:      102361.56535694
Element set:     14 
Inclination:       64.5606 deg
RA of node:       358.1816 deg
Eccentricity:    0.0031566
Arg of perigee:   132.7504 deg
Mean anomaly:     227.6261 deg
Mean motion:   14.71342632 rev/day
Decay rate:    1.6019E-005 rev/day^2
Epoch rev:             101
Checksum:              276


Read previous mail | Read next mail


 24.09.2026 07:03:13lGo back Go up